Hourly Data Report for October 05, 2017

All times are specified in Local Standard Time (LST). Add 1 hour to adjust for Daylight Saving Time where and when it is observed.

YARMOUTH A
NOVA SCOTIA

43°49'37.000" N
66°05'17.000" W
42.90 m
8206495
71603
YQI

Download Data

Hourly Data (October 2017)
Hourly Data Report for October 5, 2017
Temp Definition
°C
Dew Point Temp Definition
°C
Rel Hum Definition
%
Wind Dir Definition
10's deg

Wind Spd Definition
km/h
Visibility Definition
km
Stn Press Definition
kPa
Hmdx Definition


Wind Chill Definition


Weather Definition


TIME
00:00 Legend Double Dagger 14.4 13.7 96 23 26 9.7 101.15     Fog
01:00 Legend Double Dagger 14.4 13.7 95 24 21 9.7 101.12     Fog
02:00 Legend Double Dagger 14.6 13.8 95 23 22 9.7 101.05     Fog
03:00 Legend Double Dagger 14.7 13.9 95 24 24 9.7 100.97     Fog
04:00 Legend Double Dagger 15.0 14.1 94 25 27 9.7 100.98     Fog
05:00 Legend Double Dagger 15.2 14.2 94 24 26 9.7 100.91     Fog
06:00 Legend Double Dagger 15.2 14.2 94 25 20 9.7 100.95     Fog
07:00 Legend Double Dagger 15.5 14.4 93 26 22 9.7 100.97     Fog
08:00 Legend Double Dagger 15.6 14.2 92 27 26 9.7 100.99     Fog
09:00 Legend Double Dagger 16.1 14.2 88 28 26 14.5 101.00     LegendNANA
10:00 Legend Double Dagger 16.9 14.4 85 28 22 14.5 101.07     LegendNANA
11:00 Legend Double Dagger 17.9 14.3 80 29 21 24.1 101.08     Clear
12:00 Legend Double Dagger 17.8 14.0 78 28 18 24.1 101.05     LegendNANA
13:00 Legend Double Dagger 19.2 13.9 71 29 17 24.1 100.98     LegendNANA
14:00 Legend Double Dagger 18.8 13.2 70 29 19 24.1 100.97     Mainly Clear
15:00 Legend Double Dagger 19.1 13.0 68 26 13 24.1 100.94     LegendNANA
16:00 Legend Double Dagger 17.7 13.3 75 26 15 24.1 100.95     LegendNANA
17:00 Legend Double Dagger 16.5 12.7 78 25 14 24.1 100.92     Mainly Clear
18:00 Legend Double Dagger 14.3 13.1 92 24 18 24.1 100.96     LegendNANA
19:00 Legend Double Dagger 13.7 12.6 93 24 13 24.1 100.98     LegendNANA
20:00 Legend Double Dagger 13.8 13.1 96 24 15 22.5 101.01     Clear
21:00 Legend Double Dagger 13.8 13.3 97 24 14 24.1 101.06     LegendNANA
22:00 Legend Double Dagger 13.9 13.1 95 24 13 24.1 101.05     LegendNANA
23:00 Legend Double Dagger 13.6 12.4 93 23 12 24.1 101.02     Clear

Notes on Data Quality.

Legend

  • E = Estimated
  • M = Missing
  • NA = Not Available
  • ‡ = Partner data that is not subject to review by the National Climate Archives
Date modified: